TimeCDT,TemperatureF,Dew PointF,Humidity,Sea Level PressureIn,VisibilityMPH,Wind Direction,Wind SpeedMPH,Gust SpeedMPH,PrecipitationIn,Events,Conditions,WindDirDegrees,DateUTC
12:15 AM,73.8,71.6,93,30.04,10.0,Calm,Calm,-,N/A,,Clear,0,2013-09-05 05:15:00
12:35 AM,72.9,70.9,93,30.04,7.0,Calm,Calm,-,N/A,,Clear,0,2013-09-05 05:35:00
12:55 AM,72.5,70.7,94,30.04,5.0,Calm,Calm,-,N/A,,Clear,0,2013-09-05 05:55:00
1:15 AM,71.8,70.2,95,30.05,5.0,Calm,Calm,-,N/A,,Clear,0,2013-09-05 06:15:00
1:35 AM,71.8,70.3,95,30.04,4.0,Calm,Calm,-,N/A,,Clear,0,2013-09-05 06:35:00
1:55 AM,71.6,70.0,95,30.04,5.0,Calm,Calm,-,N/A,,Clear,0,2013-09-05 06:55:00
2:15 AM,71.1,69.4,95,30.04,7.0,Calm,Calm,-,N/A,,Clear,0,2013-09-05 07:15:00
2:35 AM,70.5,69.3,96,30.05,4.0,Calm,Calm,-,N/A,,Clear,0,2013-09-05 07:35:00
2:55 AM,70.2,68.9,96,30.04,4.0,Calm,Calm,-,N/A,,Clear,0,2013-09-05 07:55:00
3:15 AM,70.0,68.9,96,30.04,1.2,Calm,Calm,-,N/A,,Mist,0,2013-09-05 08:15:00
3:35 AM,69.6,68.2,95,30.03,4.0,Calm,Calm,-,N/A,,Clear,0,2013-09-05 08:35:00
3:55 AM,70.0,68.5,95,30.03,5.0,Calm,Calm,-,N/A,,Clear,0,2013-09-05 08:55:00
4:15 AM,69.8,68.4,95,30.03,5.0,Calm,Calm,-,N/A,,Clear,0,2013-09-05 09:15:00
4:35 AM,69.6,68.2,95,30.04,5.0,Calm,Calm,-,N/A,,Clear,0,2013-09-05 09:35:00
4:55 AM,69.3,67.8,95,30.04,5.0,Calm,Calm,-,N/A,,Clear,0,2013-09-05 09:55:00
5:15 AM,69.3,67.6,95,30.04,4.0,Calm,Calm,-,N/A,,Clear,0,2013-09-05 10:15:00
5:35 AM,69.3,67.8,95,30.05,4.0,Calm,Calm,-,N/A,,Clear,0,2013-09-05 10:35:00
5:55 AM,68.9,67.5,95,30.05,5.0,Calm,Calm,-,N/A,,Clear,0,2013-09-05 10:55:00
6:15 AM,68.9,67.3,95,30.06,5.0,Calm,Calm,-,N/A,,Clear,0,2013-09-05 11:15:00
6:35 AM,69.3,68.0,96,30.07,2.5,Calm,Calm,-,N/A,,Clear,0,2013-09-05 11:35:00
6:55 AM,68.9,67.6,96,30.07,3.0,Calm,Calm,-,N/A,,Clear,0,2013-09-05 11:55:00
7:15 AM,69.6,68.2,95,30.09,3.0,Calm,Calm,-,N/A,,Scattered Clouds,0,2013-09-05 12:15:00
7:35 AM,71.1,69.8,96,30.10,4.0,Calm,Calm,-,N/A,,Scattered Clouds,0,2013-09-05 12:35:00
7:55 AM,72.5,70.7,94,30.10,4.0,Calm,Calm,-,N/A,,Scattered Clouds,0,2013-09-05 12:55:00
8:15 AM,75.0,72.1,91,30.10,7.0,Calm,Calm,-,N/A,,Scattered Clouds,0,2013-09-05 13:15:00
8:35 AM,77.7,72.9,85,30.10,10.0,Calm,Calm,-,N/A,,Clear,0,2013-09-05 13:35:00
8:55 AM,80.2,73.0,79,30.10,10.0,Calm,Calm,-,N/A,,Clear,0,2013-09-05 13:55:00
9:15 AM,81.9,73.6,76,30.10,10.0,Calm,Calm,-,N/A,,Clear,0,2013-09-05 14:15:00
9:35 AM,83.5,73.6,72,30.10,10.0,Calm,Calm,-,N/A,,Clear,0,2013-09-05 14:35:00
9:55 AM,85.1,72.7,66,30.11,7.0,Calm,Calm,-,N/A,,Clear,0,2013-09-05 14:55:00
10:15 AM,86.5,72.9,64,30.11,10.0,Calm,Calm,-,N/A,,Clear,0,2013-09-05 15:15:00
10:35 AM,88.0,72.7,60,30.11,10.0,East,3.5,-,N/A,,Clear,90,2013-09-05 15:35:00
10:55 AM,88.5,72.3,59,30.10,10.0,East,3.5,-,N/A,,Clear,100,2013-09-05 15:55:00
11:15 AM,90.3,72.1,55,30.10,10.0,NE,4.6,-,N/A,,Clear,50,2013-09-05 16:15:00
11:35 AM,90.0,71.8,55,30.10,10.0,NNE,4.6,-,N/A,,Clear,20,2013-09-05 16:35:00
11:55 AM,89.1,71.1,55,30.10,10.0,ENE,3.5,-,N/A,,Scattered Clouds,60,2013-09-05 16:55:00
12:15 PM,90.9,71.1,52,30.09,10.0,Calm,Calm,-,N/A,,Scattered Clouds,0,2013-09-05 17:15:00
12:35 PM,92.1,71.2,50,30.08,10.0,East,5.8,-,N/A,,Scattered Clouds,100,2013-09-05 17:35:00
12:55 PM,92.3,71.2,50,30.07,10.0,ENE,6.9,-,N/A,,Scattered Clouds,60,2013-09-05 17:55:00
1:15 PM,93.7,71.6,48,30.06,10.0,East,8.1,-,N/A,,Scattered Clouds,100,2013-09-05 18:15:00
1:35 PM,91.2,70.5,51,30.06,10.0,East,6.9,-,N/A,,Mostly Cloudy,90,2013-09-05 18:35:00
1:55 PM,90.3,68.0,48,30.05,10.0,ENE,3.5,-,N/A,,Scattered Clouds,70,2013-09-05 18:55:00
2:15 PM,90.3,70.0,51,30.04,10.0,Calm,Calm,-,N/A,,Clear,0,2013-09-05 19:15:00
2:35 PM,91.2,69.4,49,30.03,10.0,SE,3.5,-,N/A,,Scattered Clouds,140,2013-09-05 19:35:00
2:55 PM,91.6,69.4,48,30.03,10.0,Calm,Calm,-,N/A,,Scattered Clouds,0,2013-09-05 19:55:00
3:15 PM,94.3,69.1,44,30.02,10.0,NNW,3.5,-,N/A,,Mostly Cloudy,330,2013-09-05 20:15:00
3:35 PM,82.9,74.7,76,30.01,7.0,West,10.4,-,N/A,Rain,Light Rain,280,2013-09-05 20:35:00
3:55 PM,82.8,77.2,83,30.01,10.0,Calm,Calm,-,N/A,,Scattered Clouds,0,2013-09-05 20:55:00
4:15 PM,90.5,72.5,55,30.00,10.0,ESE,3.5,-,N/A,,Clear,120,2013-09-05 21:15:00
4:35 PM,93.4,70.3,47,30.00,10.0,ESE,9.2,-,N/A,,Clear,110,2013-09-05 21:35:00
4:55 PM,93.6,69.8,46,30.00,10.0,East,6.9,-,N/A,,Clear,100,2013-09-05 21:55:00
5:15 PM,92.7,69.1,46,30.00,10.0,ESE,6.9,-,N/A,,Mostly Cloudy,120,2013-09-05 22:15:00
5:35 PM,92.8,69.1,46,30.01,10.0,ESE,6.9,-,N/A,,Scattered Clouds,120,2013-09-05 22:35:00
5:55 PM,90.9,69.1,49,30.01,10.0,ESE,6.9,-,N/A,,Mostly Cloudy,120,2013-09-05 22:55:00
6:15 PM,90.0,69.6,51,30.01,10.0,ESE,3.5,-,N/A,,Mostly Cloudy,120,2013-09-05 23:15:00
6:35 PM,88.2,70.7,56,30.01,10.0,South,4.6,-,N/A,,Scattered Clouds,170,2013-09-05 23:35:00
6:55 PM,87.1,70.9,58,30.02,10.0,South,3.5,-,N/A,,Scattered Clouds,190,2013-09-05 23:55:00
7:15 PM,85.6,71.6,63,30.03,7.0,NNE,8.1,-,N/A,,Mostly Cloudy,20,2013-09-06 00:15:00
7:35 PM,77.0,69.8,78,30.04,1.2,WNW,18.4,24.2,N/A,Rain-Thunderstorm,Heavy Thunderstorms and Rain,300,2013-09-06 00:35:00
7:55 PM,74.7,70.3,86,30.06,10.0,WSW,8.1,-,N/A,Rain-Thunderstorm,Thunderstorms and Rain,250,2013-09-06 00:55:00
8:15 PM,74.3,71.8,92,30.06,7.0,SSW,5.8,-,N/A,Rain-Thunderstorm,Light Thunderstorms and Rain,210,2013-09-06 01:15:00
8:35 PM,74.8,72.7,93,30.06,7.0,Calm,Calm,-,N/A,Thunderstorm,Scattered Clouds,0,2013-09-06 01:35:00
8:55 PM,75.2,72.9,92,30.06,7.0,Calm,Calm,-,0.01,,Mostly Cloudy,0,2013-09-06 01:55:00
9:15 PM,74.8,73.2,95,30.06,5.0,Calm,Calm,-,0.02,,Overcast,0,2013-09-06 02:15:00
9:35 PM,74.7,73.2,95,30.07,5.0,Calm,Calm,-,0.07,,Scattered Clouds,0,2013-09-06 02:35:00
9:55 PM,75.2,72.7,92,30.07,10.0,Calm,Calm,-,0.14,,Clear,0,2013-09-06 02:55:00
10:15 PM,74.3,72.5,94,30.08,7.0,Calm,Calm,-,0.06,,Clear,0,2013-09-06 03:15:00
10:35 PM,73.9,72.5,95,30.08,5.0,Calm,Calm,-,0.13,,Clear,0,2013-09-06 03:35:00
10:55 PM,73.4,72.1,96,30.08,2.0,Calm,Calm,-,0.17,,Mist,0,2013-09-06 03:55:00
11:15 PM,72.3,70.9,95,30.07,1.8,Calm,Calm,-,0.02,,Mostly Cloudy,0,2013-09-06 04:15:00
11:35 PM,72.5,71.1,95,30.06,1.8,Calm,Calm,-,0.05,,Mist,0,2013-09-06 04:35:00
11:55 PM,72.0,70.7,96,30.07,1.8,Calm,Calm,-,0.07,,Overcast,0,2013-09-06 04:55:00